La Grande, OR

11:22 PM PDT on October 22, 2019 (GMT -0700)
La Grande-Union County

Weather History for KLGD - August, 2019

Change the Weather History Date:

Monday, August 5, 2019

  Actual Average Record
Temperature  
Mean Temperature 76 °F -  
Max Temperature 98 °F 85 °F 102 °F (1983)
Min Temperature 54 °F 49 °F 41 °F (1969)
Cooling Degree Days 10    
Growing Degree Days 26 (Base 50)    
Moisture  
Dew Point 48 °F    
Average Humidity 43    
Maximum Humidity 83    
Minimum Humidity 18    
Precipitation  
Precipitation 0.00 in - - ()
Sea Level Pressure  
Sea Level Pressure 30.42 in    
Wind  
Wind Speed 4 mph (NNW)    
Max Wind Speed 12 mph    
Max Gust Speed -    
Visibility 10 miles    
Events      
Averages and records for this station are not official NWS values.
T = Trace of Precipitation, MM = Missing Value Source: NWS Daily Summary

Daily Weather History Graph

Daily Weather History Graph

Search for Another Location

Airport or City:

Astronomy

Aug. 05, 2019 Rise Set
Actual Time 5:41 AM PDT 8:14 PM PDT
Civil Twilight 5:07 AM PDT 8:47 PM PDT
Nautical Twilight 4:25 AM PDT 9:29 PM PDT
Astronomical Twilight 3:37 AM PDT 10:17 PM PDT
Moon 11:17 AM PDT (8/5) 11:12 PM PDT (8/5)
Length of Visible Light 15h 39m
Length of Day
14h 33m
Waxing Crescent, 29% of the Moon is Illuminated
Aug 5
Waxing Crescent
Aug 7
First Quarter
Aug 15
Full
Aug 23
Last Quarter
Aug 30
New

Hourly Weather History & Observations

Time (PDT) Temp. Dew Point Humidity Pressure Visibility Wind Dir Wind Speed Gust Speed Precip Events Conditions
12:56 AM 64.0 °F 50.0 °F 60% 30.45 in 10.0 mi NW 5.8 mph - N/A   Unknown
1:56 AM 61.0 °F 50.0 °F 67% 30.45 in 10.0 mi West 3.5 mph - N/A   Unknown
2:56 AM 57.0 °F 50.0 °F 77% 30.45 in 10.0 mi Calm Calm - N/A   Unknown
3:56 AM 59.0 °F 50.0 °F 72% 30.46 in 10.0 mi Calm Calm - N/A   Unknown
4:56 AM 54.0 °F 48.0 °F 80% 30.46 in 10.0 mi Calm Calm - N/A   Unknown
5:56 AM 54.0 °F 48.9 °F 83% 30.48 in 10.0 mi Calm Calm - N/A   Unknown
6:56 AM 57.0 °F 51.1 °F 81% 30.49 in 10.0 mi NNE 3.5 mph - N/A   Unknown
7:56 AM 62.1 °F 52.0 °F 70% 30.49 in 10.0 mi Calm Calm - N/A   Unknown
8:56 AM 69.1 °F 48.9 °F 49% 30.49 in 10.0 mi West 4.6 mph - N/A   Unknown
9:56 AM 73.9 °F 50.0 °F 43% 30.48 in 10.0 mi Calm Calm - N/A   Unknown
10:56 AM 80.1 °F 50.0 °F 35% 30.46 in 10.0 mi Calm Calm - N/A   Unknown
11:56 AM 87.1 °F 46.0 °F 24% 30.45 in 10.0 mi North 5.8 mph - N/A   Unknown
12:56 PM 91.9 °F 45.0 °F 20% 30.43 in 10.0 mi NW 5.8 mph - N/A   Unknown
1:56 PM 93.9 °F 46.0 °F 19% 30.41 in 10.0 mi North 8.1 mph - N/A   Unknown
2:56 PM 93.9 °F 45.0 °F 18% 30.40 in 10.0 mi Variable 3.5 mph - N/A   Unknown
3:56 PM 97.0 °F 46.0 °F 18% 30.38 in 10.0 mi North 6.9 mph - N/A   Unknown
4:56 PM 97.0 °F 46.9 °F 18% 30.35 in 10.0 mi NNE 9.2 mph - N/A   Unknown
5:56 PM 93.0 °F 48.0 °F 21% 30.35 in 10.0 mi North 6.9 mph - N/A   Unknown
6:56 PM 89.1 °F 51.1 °F 27% 30.35 in 10.0 mi North - - N/A   Unknown
7:56 PM 87.1 °F 48.0 °F 26% 30.37 in 10.0 mi NW 6.9 mph - N/A   Unknown
8:56 PM 82.0 °F 46.9 °F 29% 30.38 in 10.0 mi NNW 9.2 mph - N/A   Unknown
9:56 PM 77.0 °F 45.0 °F 32% 30.38 in 10.0 mi NNW 9.2 mph - N/A   Unknown
10:56 PM 75.9 °F 44.1 °F 32% 30.38 in 10.0 mi NNW 11.5 mph - N/A   Unknown
11:56 PM 71.1 °F 44.1 °F 38% 30.38 in 10.0 mi NW 10.4 mph - N/A   Unknown